Regional Weather Roundup
Issued by NWS

Home | Current Version | Previous Version | Graphics & Text | Print | Product List | Glossary On
Versions: 1 2 3 4 5 6 7 8 9 10 11 12 13 14 15 16 17 18 19 20 21 22 23 24 25 26 27 28 29 30 31 32 33 34 35 36 37 38 39 40 41 42 43 44 45 46 47 48 49 50
000
ASUS43 KIND 280709
RWRIN

WEATHER ROUNDUP FOR INDIANA
NATIONAL WEATHER SERVICE INDIANAPOLIS IN
300 AM EDT THU MAY 28 2015

NOTE: "FAIR" INDICATES FEW OR NO CLOUDS BELOW 12,000 FEET WITH NO
SIGNIFICANT WEATHER AND/OR OBSTRUCTIONS TO VISIBILITY.

* - STATION DOES NOT REPORT WEATHER SUCH AS PRECIPITATION OR FOG.

+ - STATION NOT QUALITY CONTROLLED BY THE NATIONAL WEATHER SERVICE.
    USE DATA WITH CAUTION...ESPECIALLY DEWPOINT AND RELATIVE
    HUMIDITY OBSERVATIONS.

INZ001>003-010>013-019-020-280800-
NORTHWEST INDIANA

CITY           SKY/WX    TMP DP  RH WIND       PRES   REMARKS
GARY /AIRPORT/ CLEAR     56  55  97 CALM      30.17S
KNOX *+        CLEAR     54  54 100 CALM      30.17R
LA PORTE +     CLEAR     55  55 100 CALM      30.18R
MICHIGAN CITY+ CLEAR     52  52 100 CALM      30.17S FOG
MONTICELLO +   CLEAR     54  54 100 N5        30.16F
RENSSELAER +   CLEAR     57  57 100 CALM      30.18S
VALPARAISO     CLEAR     56  53  90 CALM      30.18R

$$

LMZ046-743>745-280800-
SOUTHERN LAKE MICHIGAN

STATION/POSITION TIME  TEMP    WIND        PRES    WAVE
                       AIR SEA DIR/SP/G            HT
                 (UTC) (F)     (DEG/KT/KT) (MB)    (FT)
BURNS HARBOR     0700   60     190/  5/  6 1022.0R
MICHIGAN CITY    0700   60     130/  6/  7   N/A
5NW MICH CITY    0700   56 53  200/  2/  4   N/A     0

$$

INZ004-005-014>016-021>024-280800-
NORTH CENTRAL INDIANA

CITY           SKY/WX    TMP DP  RH WIND       PRES   REMARKS
GOSHEN         CLEAR     55  53  93 CALM      30.16S
LOGANSPORT +   CLEAR     55  50  82 N3        30.18R
PERU/GRISSOM   CLEAR     56  55  95 NE1       30.16R
ROCHESTER +    CLEAR     55  55 100 CALM      30.18R
SOUTH BEND     CLEAR     55  51  86 CALM      30.18R
WARSAW +       CLEAR     54  52  94 CALM      30.17R FOG

$$

INZ006>009-017-018-025>027-280800-
NORTHEAST INDIANA

CITY           SKY/WX    TMP DP  RH WIND       PRES   REMARKS
ANGOLA *+      CLEAR     54  54 100 CALM      30.16R
AUBURN +       CLEAR     54  52  94 CALM      30.19R
FORT WAYNE     PTCLDY    56  54  93 CALM      30.18R
HUNTINGTON +   CLEAR     56  55  97 CALM      30.17R

$$

INZ028-029-035-036-043>045-051>053-280800-
WEST CENTRAL INDIANA

CITY           SKY/WX    TMP DP  RH WIND       PRES   REMARKS
CRAWFORDSVL +  CLEAR     57  53  85 CALM      30.18R
GREENCASTLE +  CLEAR     61  54  77 NE3       30.18R
LAFAYETTE      CLEAR     56  54  93 N3        30.17R
TERRE HAUTE    CLEAR     61  58  90 CALM      30.16R

$$

INZ030>032-037>040-046>048-054>057-064-065-280800-
CENTRAL INDIANA

CITY           SKY/WX    TMP DP  RH WIND       PRES   REMARKS
CP ATTERBURY + MOCLDY    63  61  94 CALM      30.16S
FRANKFORT +    CLEAR     59  59 100 CALM      30.19S
GREENWOOD *+   MOCLDY    66  55  68 NE3       30.17S
INDIANAPOLIS   PTCLDY    64  57  78 NE5       30.15R
-EAGLE CREEK   PTCLDY    64  59  83 CALM      30.16R
KOKOMO *+      CLEAR     55  54  94 CALM      30.18R
MARION +       PTCLDY    60  57  88 NW3       30.18R
SHELBYVILLE    MOCLDY    69  65  86 NW3       30.16R
ZIONSVILLE +   PTCLDY    60  56  87 N7        30.17F

$$

INZ033-034-041-042-049-050-058-059-280800-
EAST CENTRAL INDIANA

CITY           SKY/WX    TMP DP  RH WIND       PRES   REMARKS
MUNCIE         PTCLDY    63  58  83 CALM      30.16S

$$

INZ060-061-067>069-081>083-085>088-280800-
SOUTHWEST INDIANA

CITY           SKY/WX    TMP DP  RH WIND       PRES   REMARKS
EVANSVILLE     MOCLDY    66  64  93 CALM      30.16S
HUNTINGBURG *+ MOCLDY    64  61  88 CALM      30.16S
WASHINGTON +   MOCLDY    64  60  87 CALM      30.15S

$$

INZ062-063-066-070>080-084-089>092-280800-
SOUTH CENTRAL AND SOUTHEAST INDIANA

CITY           SKY/WX    TMP DP  RH WIND       PRES   REMARKS
BLOOMINGTON    MOCLDY    64  62  93 CALM      30.15S
NORTH VERNON + MOCLDY    63  63 100 CALM      30.17R FOG
SEYMOUR +      MOCLDY    64  63  94 CALM      30.16R

$$




USA.gov is the U.S. government's official web portal to all federal, state and local government web resources and services.